Location: Amsterdam
(30.7274°N, 84.4357°W)
Time: 21:59:41
(UTC+00:00)

Tiros 1 despin weight - Pass Details

Date: 17 February 2026
Orbit: 556 x 593 km, 48.2° (Epoch: 7 March)

Event Time Altitude Azimuth Distance (km) Brightness Sun altitude
Rises 04:31:35 0° 299° (WNW) 2,741 - -63.6°
Reaches altitude 10° 04:34:02 10° 288° (WNW) 1,849 - -64.0°
Maximum altitude 04:37:41 29° 228° (SW) 1,054 - -64.6°
Drops below altitude 10° 04:41:22 10° 168° (SSE) 1,860 - -65.2°
Sets 04:43:51 0° 156° (SSE) 2,762 - -65.6°
